Weather Roundup
Issued by NWS

Home | Current Version | Previous Version | Text Only | Print | Product List | Glossary On
Versions: 1 2 3 4 5 6 7 8 9 10 11 12 13 14 15 16 17 18 19 20 21 22 23 24 25 26 27 28 29 30 31 32 33 34 35 36 37 38 39 40 41 42 43 44 45 46 47 48 49 50
195
NZUS93 KARX 081659
HRRWXR

CURRENT HOURLY OBSERVATIONS ACROSS
MUCH OF THE UPPER MISSISSIPPI VALLEY
NATIONAL WEATHER SERVICE LA CROSSE WI
1100 AM CST MON FEB 08 2016


...SOUTHEAST MINNESOTA...


CITY           SKY/WX    TMP DP  RH WIND       PRES   REMARKS
ROCHESTER      MIX PCPN  11   5  77 NW25      29.85R WCI -10
ROCHESTER/MAYO CLOUDY    13   6  74 NW16G26   29.86R WCI  -4
WINONA         CLOUDY    19  10  68 NW21G28   29.87R WCI   3
AUSTIN         CLOUDY    10   7  85 NW21G31   29.88R HAZE    WCI  -9
ALBERT LEA     CLOUDY    12   7  79 NW16G29   29.91R HAZE    WCI  -4
DODGE CENTER   CLOUDY    12   7  79 NW20      29.86S HAZE    WCI  -6
PRESTON        CLOUDY    13   6  73 NW18G28   29.83R WCI  -4
OWATONNA       CLOUDY    12   5  73 NW20      29.92R WCI  -6
FARIBAULT      CLOUDY    12   5  73 NW16G24   29.94R WCI  -4
$$

...ELSEWHERE IN MINNESOTA...


CITY           SKY/WX    TMP DP  RH WIND       PRES   REMARKS
MINNEAPOLIS    CLOUDY    13   3  64 NW22G28   29.95R WCI  -6
INTNL FALLS    LGT SNOW   5  -2  72 NW16      29.98R WCI -14
DULUTH         LGT SNOW   8   1  73 N20G28    29.83R BLWGSNOWWCI -11
RED WING       LGT SNOW  16   3  57 NW13G18   29.91R WCI   2
REDWOOD FALLS  FLURRIES  14   5  67 NW21G35   30.05R WCI  -4
MANKATO        CLOUDY   N/A N/A N/A NW21G31   29.97R
WORTHINGTON    CLOUDY   N/A N/A N/A NW35G47   30.05R VSB 3/4
FAIRMONT       CLOUDY    14   3  62 NW29G37   29.97R VSB 1/2 WCI  -7
$$

...SOUTHWEST WISCONSIN...


CITY           SKY/WX    TMP DP  RH WIND       PRES   REMARKS
LA CROSSE      CLOUDY    18   9  68 NW21      29.82R WCI   1
PRAIRIE DU CHI MIX PCPN  20  12  71 NW12      29.80R WCI   8
BOSCOBEL       CLOUDY    21  12  68 N10       29.79R WCI  10
LONE ROCK      CLOUDY    22  13  68 NW10      29.75R WCI  11
PLATTEVILLE    CLOUDY    20  15  79 NW17      29.74R WCI   5
FORT MC COY    CLOUDY    18  12  76 NW13G23   29.80R WCI   5
VIROQUA        CLOUDY    17  12  80 NW17G23   29.75R WCI   1
WIS DELLS      CLOUDY    21  14  74 NW10G17   29.71R WCI   9
$$

...ELSEWHERE IN WISCONSIN...


CITY           SKY/WX    TMP DP  RH WIND       PRES   REMARKS
MILWAUKEE      CLOUDY    30  24  78 NW13      29.65R WCI  20
MADISON        FLURRIES  22  15  75 NW9G21    29.70R WCI  12
GREEN BAY      FLURRIES  31  25  78 NW12      29.63S WCI  22
EAU CLAIRE     NOT AVBL
BLACK RVR FLS  FLURRIES  18   9  68 NW13G18   29.79R WCI   5
MEDFORD        CLOUDY    18  14  84 NW17      29.70R FOG     WCI   3
WAUSAU         CLOUDY    26  17  68 NW15G22   29.66R WCI  14
WIS RAPIDS     CLOUDY    22  13  68 NW12      29.72R WCI  10
MARSHFIELD     CLOUDY    19  11  70 NW18      29.70R WCI   4
RICE LAKE      FLURRIES  14   5  69 NW12      29.86R WCI   0
$$

...NORTHEAST IOWA...


CITY           SKY/WX    TMP DP  RH WIND       PRES   REMARKS
WATERLOO       LGT SNOW  14   8  77 NW23G33   29.88R WCI  -5
DUBUQUE        CLOUDY    19  12  74 NW15G24   29.76R WCI   5
DECORAH        CLOUDY    16   9  73 N20G29    29.80R WCI  -1
MASON CITY     SNOW      12   7  80 NW28G36   29.92R VSB 1/2 WCI  -9
CHARLES CITY   CLOUDY    14   9  79 NW22G30   29.87R WCI  -4
OELWEIN        LGT SNOW  14  10  85 NW21G28   29.84R WCI  -4
$$

...ELSEWHERE IN IOWA...


CITY           SKY/WX    TMP DP  RH WIND       PRES   REMARKS
DES MOINES     SNOW      18  10  71 NW31G40   29.98R VSB 1/2 WCI  -2
IOWA CITY      LGT SNOW  18  10  71 NW22G33   29.87R WCI   1
FORT DODGE     PTSUNNY   16   7  67 N17G32    30.00R WCI   0
MARSHALLTOWN   LGT SNOW  14   9  80 NW26G35   29.92R WCI  -6
CEDAR RAPIDS   LGT SNOW  17  12  80 NW22      29.84R WCI   0
$$

...NORTHERN ILLINOIS...


CITY           SKY/WX    TMP DP  RH WIND       PRES   REMARKS
CHICAGO-OHARE  CLOUDY    29  22  75 W14       29.66R WCI  18
CHICAGO-MIDWAY CLOUDY    31  20  63 W13       29.67R WCI  21
MOLINE         LGT SNOW  21  13  71 NW18      29.80S WCI   6
ROCKFORD       FLURRIES  25  18  74 NW16      29.72R WCI  12
PEORIA         LGT SNOW  22  14  71 NW12G23   29.80R WCI  10
$$

NOTE: "FAIR" INDICATES FEW OR NO CLOUDS BELOW 12,000 FEET WITH NO
SIGNIFICANT WEATHER AND/OR OBSTRUCTIONS TO VISIBILITY. WIND
SPEEDS ARE IN MILES-PER-HOUR.




USA.gov is the U.S. government's official web portal to all federal, state and local government web resources and services.